{"data":{"norad_id":49089,"epoch":"2026-09-20T00:28:13.631808Z","epoch_age_seconds":67206,"freshness":"FRESH","line1":"1 49089U 21075Q   26263.01960222  .00000198  00000+0  51387-3 0  9990","line2":"2 49089  87.8987 331.8337 0002314  97.0435 263.0956 13.12443705247649","mean_motion":13.12443705,"eccentricity":0.0002314,"inclination_deg":87.8987,"raan_deg":331.8337,"arg_perigee_deg":97.0435,"mean_anomaly_deg":263.0956,"bstar":0.00051387,"rev_number":24764,"period_min":109.71899171858,"perigee_km":1211.9638164797,"apogee_km":1215.4773281641,"semimajor_km":7591.8575723219,"source":"CELESTRAK","updated_at":"2026-09-20T09:00:44.633854Z"}}